Regional Weather Roundup
Issued by NWS Northern Indiana

Home | Current Version | Previous Version | Graphics & Text | Print | Product List | Glossary On
Versions: 1 2 3 4 5 6 7 8 9 10 11 12 13 14 15 16 17 18 19 20 21 22 23 24 25 26 27 28 29 30 31 32 33 34 35 36 37 38 39 40 41 42 43 44 45 46 47 48 49 50
000
ASUS43 KIWX 011110
RWRIWX

KIWX WEATHER ROUNDUP
NATIONAL WEATHER SERVICE NORTHERN INDIANA
700 AM EDT WED OCT 01 2014

NOTE: "FAIR" INDICATES FEW OR NO CLOUDS BELOW 12,000 FEET WITH NO
SIGNIFICANT WEATHER AND/OR OBSTRUCTIONS TO VISIBILITY.

* THESE STATIONS ARE NOT UNDER NWS QUALITY CONTROL. THEY ALSO MAY NOT
  REPORT WEATHER SUCH AS PRECIPITATION OR FOG.

INZ001>027-011200-
NORTHERN INDIANA

CITY           SKY/WX    TMP DP  RH WIND       PRES   REMARKS
GARY*          PTCLDY    48  46  93 E6        30.02S
VALPARAISO     CLEAR     44  43  96 E5        30.02S
MICHIGAN CITY* PTCLDY    50  50 100 CALM      30.02S
LAPORTE*       CLEAR     46  46  99 CALM      30.02S
KNOX*          MOCLDY    39  38  94 SE3       30.01S
SOUTH BEND     NOT AVBL
ELKHART*       CLOUDY    54  46  76 CALM      30.03
MONTICELLO*    CLEAR     44  44  99 CALM      30.01R
LOGANSPORT*    CLEAR     41  41 100 CALM      30.03R FOG
ROCHESTER*     CLEAR     45  45 100 CALM      30.03R FOG
WARSAW*        CLEAR     45  45 100 CALM      30.03R FOG
ANGOLA*        PTCLDY    48  46  93 E5        30.03R
FORT WAYNE     MOCLDY    49  47  93 NE3       30.03S FOG
HUNTINGTON*    CLOUDY    45  45 100 NE3       30.02R FOG
PERU/GRISSOM   FOG       46  46 100 E6        30.01S VSB 1
MARION*        PTCLDY    45  45  98 E3        30.02R FOG

$$
INZ028>050-011200-
CENTRAL INDIANA

CITY           SKY/WX    TMP DP  RH WIND       PRES   REMARKS
LAFAYETTE      CLEAR     43  43 100 E5        30.00S
KOKOMO*        CLOUDY    46  45  93 E5        30.02S VSB 1/2
MUNCIE*        FOG       47  46  97 E7        30.01S VSB 1/4
INDIANAPOLIS   CLEAR     50  45  83 E7        29.99S

$$
MIZ043>046-050>051-056>058-064>065-071>073-077>080-011200-
SOUTHWEST LOWER MICHIGAN

CITY           SKY/WX    TMP DP  RH WIND       PRES   REMARKS
BATTLE CREEK   CLOUDY    53  48  83 CALM      30.04R
COLDWATER*     CLOUDY    53  48  82 CALM      30.03R
HILLSDALE*     CLOUDY    51  51 100 CALM      30.03R
HOLLAND        CLOUDY    54  49  83 E3        30.04S
GRAND RAPIDS   CLOUDY    52  50  93 CALM      30.04R
KALAMAZOO      CLOUDY    52  47  83 SE3       30.04R
STURGIS*       CLOUDY    50  48  93 CALM      30.03R
THREE RIVERS*  CLOUDY    52  48  84 CALM      30.04R

$$
OHZ001>008-015>018-024>025-011200-
NORTHWEST OHIO

CITY           SKY/WX    TMP DP  RH WIND       PRES   REMARKS
WAUSEON*       FOG       45  45 100 CALM      30.03R VSB 1/4
DEFIANCE       PTCLDY    48  45  89 N3        30.03S FOG
FINDLAY        CLOUDY    48  46  93 CALM      30.02R FOG
TOLEDO EXPRESS CLEAR     47  46  97 CALM      30.03R
TOLEDO METCALF PTCLDY    48  45  89 CALM      30.03R
LIMA           FOG       48  45  89 CALM      30.01S VSB 1/2

$$
AND FOR LAKE MICHIGAN COASTAL AND OPEN LAKE BUOY OBSERVATIONS

STATION/POSITION TEMP    WIND        PRES    VSBY  WAVE
                 AIR SEA DIR/SP/G                  HT/PER
                 (F)     (DEG/KT/KT) (MB)    (MI)  (FT/S)
CALUMET HARBOR    56     110/  7/ 12 1014.8S
MICHIGAN CITY     53      80/  4/  5   N/A
SAINT JOSEPH      54      CALM  /  3 1017.6R
SOUTH LAKE BUOY   57 62  160/ 10/ 12 1016.4F         2/ 5
4 MI NW BRIDGMAN  55 62  100/  8/ 12   N/A           1/ 2
MICHIGAN CITY     56 64  140/  6/ 10   N/A           2/ 2

$$
&&



USA.gov is the U.S. government's official web portal to all federal, state and local government web resources and services.